RJCM

Details ICAO RJCM (MMB)
Name MEMANBETSU
Region Japan
Timezone Asia/Tokyo (UTC+9.0)
Plans Departing 15
Arriving 29
Stats Elevation 135 ft / 41 m (AMSL)
Location 43.880606° 144.164053°
Runways 1
Magnetic Variation 9.221° W
Sunrise 2018-05-26 18:48:51 UTC / 2018-05-27 03:48:51 Local
Sunset 2018-05-27 09:54:56 UTC / 2018-05-27 18:54:56 Local
Advertisement - Login to hide

Runways

ID Width Length Bearing (true) Bearing (mag) Surface Threshold Offset Overrun Length
18 150 ft / 46 m 8,211 ft / 2,503 m 174.68° 183.90° Asphalt 0 ft / 0 m 197 ft / 60 m
36 150 ft / 46 m 8,211 ft / 2,503 m 354.68° 3.90° Asphalt 0 ft / 0 m 197 ft / 60 m

Approach Navaids

Runway Type Ident Frequency Range Bearing (true) Bearing (mag) Slope Elevation
18 Localiser ITB 110.10 MHz 18 nm / 33 km 174.68° 183.90° - 132 ft / 40 m (AMSL)
18 Glidescope ITB 110.10 MHz 10 nm / 19 km 174.68° 183.90° 3.00° 135 ft / 41 m (AMSL)

Map

Weather


0- 5 10 15 20 25 30 35+ Temperature / ° C

Clouds and Precipitation
Forecast for 2018-05-26 12:00 UTC. Updated 5 hours ago

Ground ~20,000 ft ~40,000 ft Winds

METAR

Not found

TAF

TAF RJCM 261111Z 2612/2718 01004KT 9999 FEW008 BKN015 TEMPO 2612/2621 FEW005 BKN008 BECMG 2712/2715 20008KT

Frequencies

Tower 126.20 MHz TWR
Tower 118.85 MHz TWR
Warning: Do not use this data for real-world aviation or navigation. No guarantee of current accuracy is given.